Starlink 3895

operational
NORAD ID: 52583 Int'l Des: 2022-051 Owner: SPXS Country: US Constellation: starlink
LEOCIRCULAR

About Starlink 3895

Description loading...

Live Position

Loading 3D Globe...

Upcoming Passes

Altitude History

Altitude vs Time

uPlot chart will show altitude changes over time

Two-Line Element Set

1 52583U 22051AZ 25307.74814885 .00001169 00000-0 91509-4 0 9990
2 52583 53.2177 324.4945 0001279 89.3907 270.7232 15.08840583192575
Epoch: Nov 3, 2025 • Age: 11 hours

Current Status

Altitude 555.1 km
Velocity 7.58 km/s
Sub-Earth Point -43.36°S, 161.81°E
Launch Date May 13, 2022
Age 3.4 years
Type internet

Technical Details

Classification Payload
Mass 297.00 kg
Dry Mass 275.00 kg
Total Mass 297.00 kg
Length 0.20 m
Diameter 2.80 m
Span 9.00 m
Shape Box + pan
Manufacturer SPXS
Bus Type Starlink
Phase Status In Orbit
Owner/State SPXS/US

Large Constellations

Loading constellations...